Location: Newark
(40.3500°N, 15.2333°E)
Time: 12:29:39
(UTC+00:00)

Vanguard 1 - Pass Details

Date: 31 January 2020
Orbit: 650 x 3833 km, 34.2° (Epoch: 24 February)

Event Time Altitude Azimuth Distance (km) Brightness Sun altitude
Rises 12:36:38 0° 223° (SW) 4,566 14.5 29.0°
Reaches altitude 10° 12:40:57 10° 210° (SSW) 3,076 14.3 28.6°
Maximum altitude 12:46:02 21° 163° (SSE) 1,858 12.4 28.2°
Drops below altitude 10° 12:49:51 10° 112° (ESE) 2,238 12.0 27.9°
Sets 12:52:25 0° 96° (E) 3,022 12.4 27.7°
